Time,TemperatureF,DewpointF,PressureIn,WindDirection,WindDirectionDegrees,WindSpeedMPH,WindSpeedGustMPH,Humidity,HourlyPrecipIn,Conditions,Clouds,dailyrainin,SoftwareType,DateUTC
2013-06-19 00:02:00,57.8,46.1,29.98,NW,318,3.5,3.5,65,0.00,CLR,,0.00,WeatherDisplay:10.37,2013-06-19 07:02:00,
2013-06-19 00:07:00,58.0,45.9,29.99,NNW,340,3.5,3.5,64,0.00,CLR,,0.00,WeatherDisplay:10.37,2013-06-19 07:07:00,
2013-06-19 00:12:00,58.2,46.1,29.99,NW,310,2.3,2.3,64,0.00,CLR,,0.00,WeatherDisplay:10.37,2013-06-19 07:12:00,
2013-06-19 00:17:00,58.1,46.0,29.99,North,353,2.3,2.3,64,0.00,CLR,,0.00,WeatherDisplay:10.37,2013-06-19 07:17:00,
2013-06-19 00:22:00,57.7,45.6,29.99,North,356,2.3,2.3,64,0.00,CLR,,0.00,WeatherDisplay:10.37,2013-06-19 07:22:00,
2013-06-19 00:27:00,57.3,45.6,30.00,WNW,293,1.1,1.1,65,0.00,CLR,,0.00,WeatherDisplay:10.37,2013-06-19 07:27:00,
2013-06-19 00:32:00,57.2,45.5,30.00,NW,325,3.0,3.0,65,0.00,CLR,,0.00,WeatherDisplay:10.37,2013-06-19 07:32:00,
2013-06-19 00:37:00,57.6,45.5,30.00,WNW,301,9.2,9.2,64,0.00,CLR,,0.00,WeatherDisplay:10.37,2013-06-19 07:37:00,
2013-06-19 00:42:00,57.8,45.7,30.00,NNW,338,5.8,5.8,64,0.00,CLR,,0.00,WeatherDisplay:10.37,2013-06-19 07:42:00,
2013-06-19 00:47:00,57.5,45.4,30.00,NE,34,4.0,4.0,64,0.00,CLR,,0.00,WeatherDisplay:10.37,2013-06-19 07:47:00,
2013-06-19 00:52:00,56.8,45.2,30.00,NNW,345,3.5,3.5,65,0.00,CLR,,0.00,WeatherDisplay:10.37,2013-06-19 07:52:00,
2013-06-19 00:57:00,56.4,45.2,30.00,North,352,3.5,3.5,66,0.00,CLR,,0.00,WeatherDisplay:10.37,2013-06-19 07:57:00,
2013-06-19 01:02:00,56.1,45.3,30.00,NNW,340,4.0,4.0,67,0.00,CLR,,0.00,WeatherDisplay:10.37,2013-06-19 08:02:00,
2013-06-19 01:07:00,55.9,45.5,30.00,NW,322,3.5,3.5,68,0.00,CLR,,0.00,WeatherDisplay:10.37,2013-06-19 08:07:00,
2013-06-19 01:12:00,55.5,45.1,30.00,NW,318,3.5,3.5,68,0.00,CLR,,0.00,WeatherDisplay:10.37,2013-06-19 08:12:00,
2013-06-19 01:17:00,55.3,45.3,30.00,NW,319,3.5,3.5,69,0.00,CLR,,0.00,WeatherDisplay:10.37,2013-06-19 08:17:00,
2013-06-19 01:22:00,55.3,44.9,30.01,North,352,4.0,4.0,68,0.00,CLR,,0.00,WeatherDisplay:10.37,2013-06-19 08:22:00,
2013-06-19 01:27:00,55.2,44.8,30.01,NNW,328,3.5,3.5,68,0.00,CLR,,0.00,WeatherDisplay:10.37,2013-06-19 08:27:00,
2013-06-19 01:32:00,54.7,44.7,30.01,NNE,16,3.5,3.5,69,0.00,CLR,,0.00,WeatherDisplay:10.37,2013-06-19 08:32:00,
2013-06-19 01:37:00,54.5,44.9,30.00,NW,315,4.6,4.6,70,0.00,CLR,,0.00,WeatherDisplay:10.37,2013-06-19 08:37:00,
2013-06-19 01:42:00,55.3,45.3,30.00,WNW,302,5.8,5.8,69,0.00,CLR,,0.00,WeatherDisplay:10.37,2013-06-19 08:42:00,
2013-06-19 01:47:00,56.0,45.2,30.01,NNW,338,4.6,4.6,67,0.00,CLR,,0.00,WeatherDisplay:10.37,2013-06-19 08:47:00,
2013-06-19 01:52:00,55.2,44.4,30.00,NNW,343,3.5,3.5,67,0.00,CLR,,0.00,WeatherDisplay:10.37,2013-06-19 08:52:00,
2013-06-19 01:57:00,54.3,44.3,30.00,NNE,23,3.5,3.5,69,0.00,CLR,,0.00,WeatherDisplay:10.37,2013-06-19 08:57:00,
2013-06-19 02:02:00,54.0,44.4,30.00,NNW,340,3.5,3.5,70,0.00,CLR,,0.00,WeatherDisplay:10.37,2013-06-19 09:02:00,
2013-06-19 02:07:00,53.6,44.4,30.00,NNW,333,3.5,3.5,71,0.00,CLR,,0.00,WeatherDisplay:10.37,2013-06-19 09:07:00,
2013-06-19 02:12:00,53.7,44.5,30.00,NNW,347,3.5,3.5,71,0.00,CLR,,0.00,WeatherDisplay:10.37,2013-06-19 09:12:00,
2013-06-19 02:17:00,53.6,44.4,30.00,NW,326,3.5,3.5,71,0.00,CLR,,0.00,WeatherDisplay:10.37,2013-06-19 09:17:00,
2013-06-19 02:22:00,53.4,44.6,30.00,NW,322,4.0,4.0,72,0.00,CLR,,0.00,WeatherDisplay:10.37,2013-06-19 09:22:00,
2013-06-19 02:27:00,54.1,44.9,30.00,NW,323,3.5,3.5,71,0.00,CLR,,0.00,WeatherDisplay:10.37,2013-06-19 09:27:00,
2013-06-19 02:32:00,54.7,45.1,30.00,NNW,335,3.5,3.5,70,0.00,CLR,,0.00,WeatherDisplay:10.37,2013-06-19 09:32:00,
2013-06-19 02:37:00,55.0,45.0,30.00,NNW,347,3.5,3.5,69,0.00,CLR,,0.00,WeatherDisplay:10.37,2013-06-19 09:37:00,
2013-06-19 02:42:00,55.1,45.1,30.00,NNW,329,5.0,5.0,69,0.00,CLR,,0.00,WeatherDisplay:10.37,2013-06-19 09:42:00,
2013-06-19 02:47:00,55.3,45.3,30.01,NW,325,3.5,3.5,69,0.00,CLR,,0.00,WeatherDisplay:10.37,2013-06-19 09:47:00,
2013-06-19 02:52:00,55.3,45.3,30.01,WNW,295,4.6,4.6,69,0.00,CLR,,0.00,WeatherDisplay:10.37,2013-06-19 09:52:00,
2013-06-19 02:57:00,55.3,45.3,30.01,NNW,335,1.1,0.0,69,0.00,CLR,,0.00,WeatherDisplay:10.37,2013-06-19 09:57:00,
2013-06-19 03:02:00,55.1,45.5,30.01,NW,316,2.3,2.3,70,0.00,CLR,,0.00,WeatherDisplay:10.37,2013-06-19 10:02:00,
2013-06-19 03:07:00,54.9,45.3,30.01,NW,314,1.0,1.0,70,0.00,CLR,,0.00,WeatherDisplay:10.37,2013-06-19 10:07:00,
2013-06-19 03:12:00,54.7,45.1,30.00,NW,314,0.0,0.0,70,0.00,CLR,,0.00,WeatherDisplay:10.37,2013-06-19 10:12:00,
2013-06-19 03:17:00,54.5,45.3,30.00,NW,312,1.1,1.1,71,0.00,CLR,,0.00,WeatherDisplay:10.37,2013-06-19 10:17:00,
2013-06-19 03:22:00,54.3,45.5,30.00,WSW,256,1.1,1.1,72,0.00,CLR,,0.00,WeatherDisplay:10.37,2013-06-19 10:22:00,
2013-06-19 03:27:00,54.3,45.5,30.00,West,260,1.1,1.1,72,0.00,CLR,,0.00,WeatherDisplay:10.37,2013-06-19 10:27:00,
2013-06-19 03:32:00,54.1,45.3,30.01,West,259,1.1,1.1,72,0.00,CLR,,0.00,WeatherDisplay:10.37,2013-06-19 10:32:00,
2013-06-19 03:37:00,53.8,45.0,30.01,WSW,249,3.5,3.5,72,0.00,CLR,,0.00,WeatherDisplay:10.37,2013-06-19 10:37:00,
2013-06-19 03:42:00,53.6,45.2,30.01,WSW,252,2.3,2.3,73,0.00,CLR,,0.00,WeatherDisplay:10.37,2013-06-19 10:42:00,
2013-06-19 03:47:00,53.4,45.0,30.01,WSW,256,1.1,1.1,73,0.00,CLR,,0.00,WeatherDisplay:10.37,2013-06-19 10:47:00,
2013-06-19 03:52:00,53.3,44.9,30.01,West,263,2.3,2.3,73,0.00,CLR,,0.00,WeatherDisplay:10.37,2013-06-19 10:52:00,
2013-06-19 03:57:00,53.2,45.1,30.01,WSW,242,1.1,1.1,74,0.00,CLR,,0.00,WeatherDisplay:10.37,2013-06-19 10:57:00,
2013-06-19 04:02:00,53.2,45.1,30.01,NW,305,2.3,2.3,74,0.00,CLR,,0.00,WeatherDisplay:10.37,2013-06-19 11:02:00,
2013-06-19 04:07:00,53.5,45.4,30.01,North,352,5.0,5.0,74,0.00,CLR,,0.00,WeatherDisplay:10.37,2013-06-19 11:07:00,
2013-06-19 04:12:00,53.7,45.2,30.01,NW,321,2.3,2.3,73,0.00,CLR,,0.00,WeatherDisplay:10.37,2013-06-19 11:12:00,
2013-06-19 04:17:00,53.6,45.2,30.01,NW,316,3.5,3.5,73,0.00,CLR,,0.00,WeatherDisplay:10.37,2013-06-19 11:17:00,
2013-06-19 04:22:00,53.8,45.3,30.01,NW,326,2.3,2.3,73,0.00,CLR,,0.00,WeatherDisplay:10.37,2013-06-19 11:22:00,
2013-06-19 04:27:00,53.9,45.4,30.01,NW,316,2.3,2.3,73,0.00,CLR,,0.00,WeatherDisplay:10.37,2013-06-19 11:27:00,
2013-06-19 04:32:00,53.9,45.4,30.01,NNW,338,2.3,2.3,73,0.00,CLR,,0.00,WeatherDisplay:10.37,2013-06-19 11:32:00,
2013-06-19 04:37:00,53.6,45.2,30.01,WSW,255,2.3,0.0,73,0.00,CLR,,0.00,WeatherDisplay:10.37,2013-06-19 11:37:00,
2013-06-19 04:42:00,52.7,44.3,30.01,WSW,255,1.1,1.1,73,0.00,CLR,,0.00,WeatherDisplay:10.37,2013-06-19 11:42:00,
2013-06-19 04:47:00,51.6,44.6,30.01,WSW,255,0.0,0.0,77,0.00,CLR,,0.00,WeatherDisplay:10.37,2013-06-19 11:47:00,
2013-06-19 04:52:00,51.1,44.5,30.01,WNW,292,0.0,0.0,78,0.00,CLR,,0.00,WeatherDisplay:10.37,2013-06-19 11:52:00,
2013-06-19 04:57:00,51.0,44.0,30.01,North,351,0.0,0.0,77,0.00,CLR,,0.00,WeatherDisplay:10.37,2013-06-19 11:57:00,
2013-06-19 05:02:00,50.8,44.2,30.02,SW,224,0.0,0.0,78,0.00,CLR,,0.00,WeatherDisplay:10.37,2013-06-19 12:02:00,
2013-06-19 05:07:00,50.5,44.2,30.01,SW,225,0.0,0.0,79,0.00,CLR,,0.00,WeatherDisplay:10.37,2013-06-19 12:07:00,
2013-06-19 05:12:00,50.3,44.4,30.01,SW,229,0.0,0.0,80,0.00,CLR,,0.00,WeatherDisplay:10.37,2013-06-19 12:12:00,
2013-06-19 05:17:00,49.6,43.7,30.01,North,5,2.3,2.3,80,0.00,CLR,,0.00,WeatherDisplay:10.37,2013-06-19 12:17:00,
2013-06-19 05:22:00,49.2,43.6,30.01,North,6,0.0,0.0,81,0.00,CLR,,0.00,WeatherDisplay:10.37,2013-06-19 12:22:00,
2013-06-19 05:27:00,49.0,43.7,30.01,NW,326,1.1,0.0,82,0.00,CLR,,0.00,WeatherDisplay:10.37,2013-06-19 12:27:00,
2013-06-19 05:32:00,48.9,44.0,30.01,NW,326,1.1,0.0,83,0.00,CLR,,0.00,WeatherDisplay:10.37,2013-06-19 12:32:00,
2013-06-19 05:37:00,48.8,43.9,30.01,NW,315,0.0,0.0,83,0.00,CLR,,0.00,WeatherDisplay:10.37,2013-06-19 12:37:00,
2013-06-19 05:42:00,49.0,44.1,30.01,NW,311,0.0,0.0,83,0.00,CLR,,0.00,WeatherDisplay:10.37,2013-06-19 12:42:00,
2013-06-19 05:47:00,49.3,44.4,30.01,WNW,301,1.1,1.1,83,0.00,CLR,,0.00,WeatherDisplay:10.37,2013-06-19 12:47:00,
2013-06-19 05:52:00,49.4,44.1,30.02,WSW,252,1.0,1.0,82,0.00,CLR,,0.00,WeatherDisplay:10.37,2013-06-19 12:52:00,
2013-06-19 05:57:00,49.4,44.1,30.02,WSW,255,0.0,0.0,82,0.00,CLR,,0.00,WeatherDisplay:10.37,2013-06-19 12:57:00,
2013-06-19 06:02:00,48.5,42.9,30.02,WSW,255,0.0,0.0,81,0.00,CLR,,0.00,WeatherDisplay:10.37,2013-06-19 13:02:00,
2013-06-19 06:07:00,48.3,43.4,30.02,WSW,257,1.1,0.0,83,0.00,CLR,,0.00,WeatherDisplay:10.37,2013-06-19 13:07:00,
2013-06-19 06:12:00,48.5,43.9,30.02,WNW,294,1.1,1.1,84,0.00,CLR,,0.00,WeatherDisplay:10.37,2013-06-19 13:12:00,
2013-06-19 06:17:00,49.2,44.3,30.02,NW,311,2.3,2.3,83,0.00,CLR,,0.00,WeatherDisplay:10.37,2013-06-19 13:17:00,
2013-06-19 06:22:00,49.4,43.8,30.03,North,349,1.1,1.1,81,0.00,CLR,,0.00,WeatherDisplay:10.37,2013-06-19 13:22:00,
2013-06-19 06:27:00,48.2,43.3,30.03,NE,47,2.3,2.3,83,0.00,CLR,,0.00,WeatherDisplay:10.37,2013-06-19 13:27:00,
2013-06-19 06:32:00,48.4,43.8,30.03,NE,47,2.3,2.3,84,0.00,CLR,,0.00,WeatherDisplay:10.37,2013-06-19 13:32:00,
2013-06-19 06:37:00,48.7,43.8,30.03,NE,47,2.3,2.3,83,0.00,CLR,,0.00,WeatherDisplay:10.37,2013-06-19 13:37:00,
2013-06-19 06:42:00,48.6,44.0,30.03,NE,46,0.0,0.0,84,0.00,CLR,,0.00,WeatherDisplay:10.37,2013-06-19 13:42:00,
2013-06-19 06:47:00,49.3,44.7,30.04,North,353,1.1,1.1,84,0.00,CLR,,0.00,WeatherDisplay:10.37,2013-06-19 13:47:00,
2013-06-19 06:52:00,50.1,44.8,30.04,North,355,1.1,1.1,82,0.00,CLR,,0.00,WeatherDisplay:10.37,2013-06-19 13:52:00,
2013-06-19 06:57:00,51.0,45.7,30.04,ENE,63,2.3,2.3,82,0.00,CLR,,0.00,WeatherDisplay:10.37,2013-06-19 13:57:00,
2013-06-19 07:02:00,51.9,45.9,30.04,NNE,29,3.5,3.5,80,0.00,CLR,,0.00,WeatherDisplay:10.37,2013-06-19 14:02:00,
2013-06-19 07:07:00,52.4,46.1,30.04,NNW,343,4.6,4.6,79,0.00,CLR,,0.00,WeatherDisplay:10.37,2013-06-19 14:07:00,
2013-06-19 07:13:00,52.9,46.2,30.04,NNE,13,4.0,4.0,78,0.00,CLR,,0.00,WeatherDisplay:10.37,2013-06-19 14:13:00,
2013-06-19 07:18:00,53.3,46.6,30.04,NNW,335,4.0,4.0,78,0.00,CLR,,0.00,WeatherDisplay:10.37,2013-06-19 14:18:00,
2013-06-19 07:23:00,53.9,46.9,30.04,North,349,4.0,4.0,77,0.00,CLR,,0.00,WeatherDisplay:10.37,2013-06-19 14:23:00,
2013-06-19 07:28:00,54.3,46.5,30.04,NNW,345,4.0,4.0,75,0.00,CLR,,0.00,WeatherDisplay:10.37,2013-06-19 14:28:00,
2013-06-19 07:33:00,54.7,46.9,30.04,NNE,13,4.6,4.6,75,0.00,CLR,,0.00,WeatherDisplay:10.37,2013-06-19 14:33:00,
2013-06-19 07:38:00,55.3,47.2,30.04,NNW,330,4.6,4.6,74,0.00,CLR,,0.00,WeatherDisplay:10.37,2013-06-19 14:38:00,
2013-06-19 07:43:00,55.9,47.4,30.04,NNW,347,6.0,6.0,73,0.00,CLR,,0.00,WeatherDisplay:10.37,2013-06-19 14:43:00,
2013-06-19 07:48:00,56.1,47.6,30.04,NNW,334,5.8,5.8,73,0.00,CLR,,0.00,WeatherDisplay:10.37,2013-06-19 14:48:00,
2013-06-19 07:53:00,56.5,47.9,30.04,NW,325,3.5,3.5,73,0.00,CLR,,0.00,WeatherDisplay:10.37,2013-06-19 14:53:00,
2013-06-19 07:58:00,57.0,48.4,30.04,NNW,345,4.6,4.6,73,0.00,CLR,,0.00,WeatherDisplay:10.37,2013-06-19 14:58:00,
2013-06-19 08:03:00,57.4,48.1,30.04,NNW,342,3.5,3.5,71,0.00,CLR,,0.00,WeatherDisplay:10.37,2013-06-19 15:03:00,
2013-06-19 08:08:00,57.7,48.0,30.04,NNE,27,4.6,4.6,70,0.00,CLR,,0.00,WeatherDisplay:10.37,2013-06-19 15:08:00,
2013-06-19 08:13:00,57.8,47.7,30.04,ENE,65,3.5,3.5,69,0.00,CLR,,0.00,WeatherDisplay:10.37,2013-06-19 15:13:00,
2013-06-19 08:18:00,58.2,47.7,30.04,NNW,342,4.6,4.6,68,0.00,CLR,,0.00,WeatherDisplay:10.37,2013-06-19 15:18:00,
2013-06-19 08:23:00,58.8,48.3,30.04,NW,326,3.5,3.5,68,0.00,CLR,,0.00,WeatherDisplay:10.37,2013-06-19 15:23:00,
2013-06-19 08:28:00,59.4,47.6,30.04,North,6,6.9,6.9,65,0.00,CLR,,0.00,WeatherDisplay:10.37,2013-06-19 15:28:00,
2013-06-19 08:33:00,59.5,47.7,30.04,North,349,5.8,5.8,65,0.00,CLR,,0.00,WeatherDisplay:10.37,2013-06-19 15:33:00,
2013-06-19 08:38:00,59.7,47.1,30.04,NW,309,4.0,4.0,63,0.00,CLR,,0.00,WeatherDisplay:10.37,2013-06-19 15:38:00,
2013-06-19 08:43:00,60.1,47.0,30.04,NNW,329,5.8,5.8,62,0.00,CLR,,0.00,WeatherDisplay:10.37,2013-06-19 15:43:00,
2013-06-19 08:48:00,60.6,47.5,30.04,WSW,248,1.1,1.1,62,0.00,CLR,,0.00,WeatherDisplay:10.37,2013-06-19 15:48:00,
2013-06-19 08:53:00,60.8,46.4,30.04,NW,318,3.5,3.5,59,0.00,CLR,,0.00,WeatherDisplay:10.37,2013-06-19 15:53:00,
2013-06-19 08:58:00,61.2,47.2,30.04,West,281,3.5,3.5,60,0.00,CLR,,0.00,WeatherDisplay:10.37,2013-06-19 15:58:00,
2013-06-19 09:03:00,61.7,46.8,30.04,NW,314,5.8,5.8,58,0.00,CLR,,0.00,WeatherDisplay:10.37,2013-06-19 16:03:00,
2013-06-19 09:08:00,61.9,46.0,30.04,WNW,298,4.6,4.6,56,0.00,CLR,,0.00,WeatherDisplay:10.37,2013-06-19 16:08:00,
2013-06-19 09:13:00,62.4,46.5,30.04,North,356,4.0,4.0,56,0.00,CLR,,0.00,WeatherDisplay:10.37,2013-06-19 16:13:00,
2013-06-19 09:18:00,63.0,47.5,30.04,NW,307,6.9,6.9,57,0.00,CLR,,0.00,WeatherDisplay:10.37,2013-06-19 16:18:00,
2013-06-19 09:23:00,63.9,47.4,30.04,West,266,3.5,3.5,55,0.00,CLR,,0.00,WeatherDisplay:10.37,2013-06-19 16:23:00,
2013-06-19 09:28:00,64.0,45.5,30.04,North,356,5.8,5.8,51,0.00,CLR,,0.00,WeatherDisplay:10.37,2013-06-19 16:28:00,
2013-06-19 09:33:00,64.5,46.5,30.04,NNE,25,5.8,5.8,52,0.00,CLR,,0.00,WeatherDisplay:10.37,2013-06-19 16:33:00,
2013-06-19 09:38:00,64.7,47.2,30.04,WNW,293,1.1,1.1,53,0.00,CLR,,0.00,WeatherDisplay:10.37,2013-06-19 16:38:00,
2013-06-19 09:43:00,65.1,45.5,30.04,NW,311,5.8,5.8,49,0.00,CLR,,0.00,WeatherDisplay:10.37,2013-06-19 16:43:00,
2013-06-19 09:48:00,64.9,45.8,30.04,NNW,331,5.8,5.8,50,0.00,CLR,,0.00,WeatherDisplay:10.37,2013-06-19 16:48:00,
2013-06-19 09:53:00,65.0,45.4,30.04,North,8,3.5,3.5,49,0.00,CLR,,0.00,WeatherDisplay:10.37,2013-06-19 16:53:00,
2013-06-19 09:58:00,65.4,45.7,30.04,NNW,332,6.9,6.9,49,0.00,CLR,,0.00,WeatherDisplay:10.37,2013-06-19 16:58:00,
2013-06-19 10:03:00,65.6,45.4,30.04,NNE,25,8.1,8.1,48,0.00,CLR,,0.00,WeatherDisplay:10.37,2013-06-19 17:03:00,
2013-06-19 10:08:00,65.5,44.2,30.04,NW,319,3.5,3.5,46,0.00,CLR,,0.00,WeatherDisplay:10.37,2013-06-19 17:08:00,
2013-06-19 10:13:00,66.0,45.2,30.04,NNE,14,4.6,4.6,47,0.00,CLR,,0.00,WeatherDisplay:10.37,2013-06-19 17:13:00,
2013-06-19 10:18:00,66.0,45.2,30.03,NNW,340,4.0,4.0,47,0.00,CLR,,0.00,WeatherDisplay:10.37,2013-06-19 17:18:00,
2013-06-19 10:23:00,66.4,45.5,30.03,NNW,342,8.1,8.1,47,0.00,CLR,,0.00,WeatherDisplay:10.37,2013-06-19 17:23:00,
2013-06-19 10:28:00,66.6,46.3,30.03,NE,39,5.0,5.0,48,0.00,CLR,,0.00,WeatherDisplay:10.37,2013-06-19 17:28:00,
2013-06-19 10:33:00,67.1,44.4,30.04,NE,50,4.6,4.6,44,0.00,CLR,,0.00,WeatherDisplay:10.37,2013-06-19 17:33:00,
2013-06-19 10:38:00,67.4,45.3,30.04,NW,315,6.9,6.9,45,0.00,CLR,,0.00,WeatherDisplay:10.37,2013-06-19 17:38:00,
2013-06-19 10:43:00,67.7,45.6,30.04,WNW,300,4.6,4.6,45,0.00,CLR,,0.00,WeatherDisplay:10.37,2013-06-19 17:43:00,
2013-06-19 10:48:00,68.5,45.1,30.04,NNW,328,3.5,3.5,43,0.00,CLR,,0.00,WeatherDisplay:10.37,2013-06-19 17:48:00,
2013-06-19 10:53:00,68.8,44.1,30.03,SW,221,3.5,3.5,41,0.00,CLR,,0.00,WeatherDisplay:10.37,2013-06-19 17:53:00,
2013-06-19 10:58:00,69.2,45.7,30.03,SSE,148,2.3,2.3,43,0.00,CLR,,0.00,WeatherDisplay:10.37,2013-06-19 17:58:00,
2013-06-19 11:03:00,70.0,43.9,30.03,WSW,252,3.5,3.5,39,0.00,CLR,,0.00,WeatherDisplay:10.37,2013-06-19 18:03:00,
2013-06-19 11:08:00,70.8,43.9,30.03,SW,218,3.5,3.5,38,0.00,CLR,,0.00,WeatherDisplay:10.37,2013-06-19 18:08:00,
2013-06-19 11:13:00,71.3,43.7,30.03,SSE,163,4.6,4.6,37,0.00,CLR,,0.00,WeatherDisplay:10.37,2013-06-19 18:13:00,
2013-06-19 11:18:00,71.7,45.4,30.03,SE,131,1.1,1.1,39,0.00,CLR,,0.00,WeatherDisplay:10.37,2013-06-19 18:18:00,
2013-06-19 11:23:00,72.1,43.7,30.03,SE,124,3.5,3.5,36,0.00,CLR,,0.00,WeatherDisplay:10.37,2013-06-19 18:23:00,
2013-06-19 11:28:00,72.4,43.9,30.03,South,170,2.3,2.3,36,0.00,CLR,,0.00,WeatherDisplay:10.37,2013-06-19 18:28:00,
2013-06-19 11:33:00,72.5,44.7,30.03,SSW,199,3.5,3.5,37,0.00,CLR,,0.00,WeatherDisplay:10.37,2013-06-19 18:33:00,
2013-06-19 11:38:00,73.5,44.9,30.03,SW,228,0.0,0.0,36,0.00,CLR,,0.00,WeatherDisplay:10.37,2013-06-19 18:38:00,
2013-06-19 11:43:00,74.0,44.6,30.03,NNE,17,4.6,4.6,35,0.00,CLR,,0.00,WeatherDisplay:10.37,2013-06-19 18:43:00,
2013-06-19 11:48:00,73.5,44.2,30.03,NNE,16,2.3,2.3,35,0.00,CLR,,0.00,WeatherDisplay:10.37,2013-06-19 18:48:00,
2013-06-19 11:53:00,73.2,44.6,30.03,NNW,340,6.9,6.9,36,0.00,CLR,,0.00,WeatherDisplay:10.37,2013-06-19 18:53:00,
2013-06-19 11:58:00,73.9,45.3,30.03,SSE,150,1.1,1.1,36,0.00,CLR,,0.00,WeatherDisplay:10.37,2013-06-19 18:58:00,
2013-06-19 12:03:00,74.8,46.8,30.03,ENE,57,7.0,7.0,37,0.00,CLR,,0.00,WeatherDisplay:10.37,2013-06-19 19:03:00,
2013-06-19 12:08:00,73.8,45.9,30.03,NE,44,5.8,5.8,37,0.00,CLR,,0.00,WeatherDisplay:10.37,2013-06-19 19:08:00,
2013-06-19 12:13:00,74.0,45.3,30.03,NW,309,6.9,6.9,36,0.00,CLR,,0.00,WeatherDisplay:10.37,2013-06-19 19:13:00,
2013-06-19 12:18:00,73.8,45.2,30.02,West,275,6.9,6.9,36,0.00,CLR,,0.00,WeatherDisplay:10.37,2013-06-19 19:18:00,
2013-06-19 12:23:00,73.7,45.1,30.02,NNW,333,2.3,2.3,36,0.00,CLR,,0.00,WeatherDisplay:10.37,2013-06-19 19:23:00,
2013-06-19 12:28:00,73.7,44.3,30.02,ESE,121,2.3,2.3,35,0.00,CLR,,0.00,WeatherDisplay:10.37,2013-06-19 19:28:00,
2013-06-19 12:33:00,74.8,46.8,30.02,North,354,1.1,1.1,37,0.00,CLR,,0.00,WeatherDisplay:10.37,2013-06-19 19:33:00,
2013-06-19 12:38:00,76.1,47.9,30.02,East,97,3.5,3.5,37,0.00,CLR,,0.00,WeatherDisplay:10.37,2013-06-19 19:38:00,
2013-06-19 12:43:00,76.1,46.5,30.02,ESE,118,6.9,6.9,35,0.00,CLR,,0.00,WeatherDisplay:10.37,2013-06-19 19:43:00,
2013-06-19 12:48:00,75.4,44.3,30.02,South,183,5.0,5.0,33,0.00,CLR,,0.00,WeatherDisplay:10.37,2013-06-19 19:48:00,
2013-06-19 12:53:00,77.4,45.2,30.02,South,176,3.5,3.5,32,0.00,CLR,,0.00,WeatherDisplay:10.37,2013-06-19 19:53:00,
2013-06-19 12:58:00,78.5,46.2,30.01,NE,46,4.0,4.0,32,0.00,CLR,,0.00,WeatherDisplay:10.37,2013-06-19 19:58:00,
2013-06-19 13:03:00,77.0,45.7,30.01,East,92,3.5,3.5,33,0.00,CLR,,0.00,WeatherDisplay:10.37,2013-06-19 20:03:00,
2013-06-19 13:08:00,76.6,44.5,30.01,East,92,3.5,3.5,32,0.00,CLR,,0.00,WeatherDisplay:10.37,2013-06-19 20:08:00,
2013-06-19 13:13:00,76.6,45.3,30.01,NE,49,5.8,5.8,33,0.00,CLR,,0.00,WeatherDisplay:10.37,2013-06-19 20:13:00,
2013-06-19 13:18:00,78.0,44.9,30.01,South,188,1.1,1.1,31,0.00,CLR,,0.00,WeatherDisplay:10.37,2013-06-19 20:18:00,
2013-06-19 13:23:00,79.8,45.6,30.01,WSW,242,1.1,1.1,30,0.00,CLR,,0.00,WeatherDisplay:10.37,2013-06-19 20:23:00,
2013-06-19 13:28:00,80.1,46.7,30.00,East,97,2.3,2.3,31,0.00,CLR,,0.00,WeatherDisplay:10.37,2013-06-19 20:28:00,
2013-06-19 13:33:00,80.3,46.9,30.00,SSE,155,8.0,8.0,31,0.00,CLR,,0.00,WeatherDisplay:10.37,2013-06-19 20:33:00,
2013-06-19 13:38:00,80.9,46.6,30.00,SSW,193,3.5,3.5,30,0.00,CLR,,0.00,WeatherDisplay:10.37,2013-06-19 20:38:00,
2013-06-19 13:43:00,80.9,46.6,30.00,NE,51,6.9,6.9,30,0.00,CLR,,0.00,WeatherDisplay:10.37,2013-06-19 20:43:00,
2013-06-19 13:48:00,78.5,46.2,30.00,ENE,73,8.1,8.1,32,0.00,CLR,,0.00,WeatherDisplay:10.37,2013-06-19 20:48:00,
2013-06-19 13:53:00,77.9,47.3,30.00,SSE,150,3.5,3.5,34,0.00,CLR,,0.00,WeatherDisplay:10.37,2013-06-19 20:53:00,
2013-06-19 13:58:00,79.3,46.0,30.00,WSW,245,5.8,5.8,31,0.00,CLR,,0.00,WeatherDisplay:10.37,2013-06-19 20:58:00,
2013-06-19 14:03:00,80.4,46.1,30.00,West,264,4.6,4.6,30,0.00,CLR,,0.00,WeatherDisplay:10.37,2013-06-19 21:03:00,
2013-06-19 14:08:00,81.1,45.8,30.00,SSE,166,4.6,4.6,29,0.00,CLR,,0.00,WeatherDisplay:10.37,2013-06-19 21:08:00,
2013-06-19 14:13:00,81.3,46.0,29.99,SE,134,8.1,8.1,29,0.00,CLR,,0.00,WeatherDisplay:10.37,2013-06-19 21:13:00,
2013-06-19 14:18:00,81.1,47.6,29.99,NW,314,3.5,3.5,31,0.00,CLR,,0.00,WeatherDisplay:10.37,2013-06-19 21:18:00,
2013-06-19 14:23:00,81.8,47.3,29.99,South,179,3.5,3.5,30,0.00,CLR,,0.00,WeatherDisplay:10.37,2013-06-19 21:23:00,
2013-06-19 14:28:00,82.7,47.2,29.99,SSW,207,5.8,5.8,29,0.00,CLR,,0.00,WeatherDisplay:10.37,2013-06-19 21:28:00,
2013-06-19 14:33:00,82.4,47.8,29.99,South,191,8.1,8.1,30,0.00,CLR,,0.00,WeatherDisplay:10.37,2013-06-19 21:33:00,
2013-06-19 14:38:00,82.5,47.0,29.99,SSW,211,6.9,6.9,29,0.00,CLR,,0.00,WeatherDisplay:10.37,2013-06-19 21:38:00,
2013-06-19 14:43:00,82.3,49.5,29.98,South,169,6.0,6.0,32,0.00,CLR,,0.00,WeatherDisplay:10.37,2013-06-19 21:43:00,
2013-06-19 14:48:00,81.6,48.9,29.98,SSE,160,5.8,5.8,32,0.00,CLR,,0.00,WeatherDisplay:10.37,2013-06-19 21:48:00,
2013-06-19 14:53:00,81.5,48.8,29.98,WSW,255,4.6,4.6,32,0.00,CLR,,0.00,WeatherDisplay:10.37,2013-06-19 21:53:00,
2013-06-19 14:58:00,81.1,48.4,29.98,SW,229,3.5,3.5,32,0.00,CLR,,0.00,WeatherDisplay:10.37,2013-06-19 21:58:00,
2013-06-19 15:03:00,82.0,48.4,29.98,South,170,5.0,5.0,31,0.00,CLR,,0.00,WeatherDisplay:10.37,2013-06-19 22:03:00,
2013-06-19 15:08:00,82.4,48.7,29.98,SE,133,4.6,4.6,31,0.00,CLR,,0.00,WeatherDisplay:10.37,2013-06-19 22:08:00,
2013-06-19 15:13:00,82.1,49.3,29.98,SW,226,6.9,6.9,32,0.00,CLR,,0.00,WeatherDisplay:10.37,2013-06-19 22:13:00,
2013-06-19 15:18:00,81.7,49.8,29.98,SE,130,6.9,6.9,33,0.00,CLR,,0.00,WeatherDisplay:10.37,2013-06-19 22:18:00,
2013-06-19 15:23:00,81.7,49.8,29.98,SSE,152,4.0,4.0,33,0.00,CLR,,0.00,WeatherDisplay:10.37,2013-06-19 22:23:00,
2013-06-19 15:28:00,82.0,49.2,29.97,SSW,207,8.1,8.1,32,0.00,CLR,,0.00,WeatherDisplay:10.37,2013-06-19 22:28:00,
2013-06-19 15:33:00,82.0,49.2,29.97,SW,235,6.9,6.9,32,0.00,CLR,,0.00,WeatherDisplay:10.37,2013-06-19 22:33:00,
2013-06-19 15:38:00,82.2,48.6,29.97,SSW,201,5.8,5.8,31,0.00,CLR,,0.00,WeatherDisplay:10.37,2013-06-19 22:38:00,
2013-06-19 15:43:00,81.9,48.3,29.97,WSW,242,5.8,5.8,31,0.00,CLR,,0.00,WeatherDisplay:10.37,2013-06-19 22:43:00,
2013-06-19 15:48:00,81.4,48.7,29.97,SW,218,5.8,5.8,32,0.00,CLR,,0.00,WeatherDisplay:10.37,2013-06-19 22:48:00,
2013-06-19 15:53:00,81.9,49.1,29.97,WSW,249,5.8,5.8,32,0.00,CLR,,0.00,WeatherDisplay:10.37,2013-06-19 22:53:00,
2013-06-19 15:58:00,82.1,48.5,29.97,WNW,290,3.5,3.5,31,0.00,CLR,,0.00,WeatherDisplay:10.37,2013-06-19 22:58:00,
2013-06-19 16:03:00,81.3,47.8,29.96,West,278,4.6,4.6,31,0.00,CLR,,0.00,WeatherDisplay:10.37,2013-06-19 23:03:00,
2013-06-19 16:08:00,81.2,47.7,29.96,NW,326,3.5,3.5,31,0.00,CLR,,0.00,WeatherDisplay:10.37,2013-06-19 23:08:00,
2013-06-19 16:13:00,80.7,47.2,29.96,West,281,11.5,11.5,31,0.00,CLR,,0.00,WeatherDisplay:10.37,2013-06-19 23:13:00,
2013-06-19 16:18:00,80.6,47.2,29.96,WNW,298,4.6,4.6,31,0.00,CLR,,0.00,WeatherDisplay:10.37,2013-06-19 23:18:00,
2013-06-19 16:23:00,80.3,47.7,29.96,WSW,255,6.9,6.9,32,0.00,CLR,,0.00,WeatherDisplay:10.37,2013-06-19 23:23:00,
2013-06-19 16:28:00,80.1,47.6,29.96,WSW,253,8.1,8.1,32,0.00,CLR,,0.00,WeatherDisplay:10.37,2013-06-19 23:28:00,
2013-06-19 16:33:00,79.9,47.4,29.96,East,84,12.7,12.7,32,0.00,CLR,,0.00,WeatherDisplay:10.37,2013-06-19 23:33:00,
2013-06-19 16:38:00,79.2,47.6,29.96,West,260,9.2,9.2,33,0.00,CLR,,0.00,WeatherDisplay:10.37,2013-06-19 23:38:00,
2013-06-19 16:43:00,79.2,47.6,29.96,West,259,4.6,4.6,33,0.00,CLR,,0.00,WeatherDisplay:10.37,2013-06-19 23:43:00,
2013-06-19 16:48:00,79.2,47.6,29.96,West,259,4.6,4.6,33,0.00,CLR,,0.00,WeatherDisplay:10.37,2013-06-19 23:48:00,
2013-06-19 16:53:00,78.9,47.3,29.96,West,273,6.9,6.9,33,0.00,CLR,,0.00,WeatherDisplay:10.37,2013-06-19 23:53:00,
2013-06-19 16:58:00,79.1,47.5,29.96,WSW,246,5.8,5.8,33,0.00,CLR,,0.00,WeatherDisplay:10.37,2013-06-19 23:58:00,
2013-06-19 17:03:00,78.8,48.1,29.96,ESE,115,6.9,6.9,34,0.00,CLR,,0.00,WeatherDisplay:10.37,2013-06-20 00:03:00,
2013-06-19 17:08:00,78.7,48.0,29.96,WSW,255,4.6,4.6,34,0.00,CLR,,0.00,WeatherDisplay:10.37,2013-06-20 00:08:00,
2013-06-19 17:13:00,78.7,48.0,29.96,WNW,297,13.8,13.8,34,0.00,CLR,,0.00,WeatherDisplay:10.37,2013-06-20 00:13:00,
2013-06-19 17:18:00,78.7,48.7,29.96,WNW,294,9.2,9.2,35,0.00,CLR,,0.00,WeatherDisplay:10.37,2013-06-20 00:18:00,
2013-06-19 17:23:00,78.5,47.0,29.96,West,273,5.8,5.8,33,0.00,CLR,,0.00,WeatherDisplay:10.37,2013-06-20 00:23:00,
2013-06-19 17:28:00,78.6,47.9,29.96,West,269,6.9,6.9,34,0.00,CLR,,0.00,WeatherDisplay:10.37,2013-06-20 00:28:00,
2013-06-19 17:33:00,78.5,48.6,29.96,WSW,252,5.8,5.8,35,0.00,CLR,,0.00,WeatherDisplay:10.37,2013-06-20 00:33:00,
2013-06-19 17:38:00,78.6,47.9,29.95,West,266,10.4,10.4,34,0.00,CLR,,0.00,WeatherDisplay:10.37,2013-06-20 00:38:00,
2013-06-19 17:43:00,78.6,48.7,29.95,WNW,298,8.1,8.1,35,0.00,CLR,,0.00,WeatherDisplay:10.37,2013-06-20 00:43:00,
2013-06-19 17:48:00,78.3,48.4,29.95,WSW,242,9.2,9.2,35,0.00,CLR,,0.00,WeatherDisplay:10.37,2013-06-20 00:48:00,
2013-06-19 17:53:00,78.2,48.3,29.95,West,266,5.8,5.8,35,0.00,CLR,,0.00,WeatherDisplay:10.37,2013-06-20 00:53:00,
2013-06-19 17:58:00,78.0,48.1,29.95,SW,220,9.2,9.2,35,0.00,CLR,,0.00,WeatherDisplay:10.37,2013-06-20 00:58:00,
2013-06-19 18:03:00,77.8,47.9,29.95,WNW,291,6.9,6.9,35,0.00,CLR,,0.00,WeatherDisplay:10.37,2013-06-20 01:03:00,
2013-06-19 18:08:00,77.9,48.0,29.95,WSW,240,9.2,9.2,35,0.00,CLR,,0.00,WeatherDisplay:10.37,2013-06-20 01:08:00,
2013-06-19 18:13:00,77.6,47.8,29.95,WNW,302,7.0,7.0,35,0.00,CLR,,0.00,WeatherDisplay:10.37,2013-06-20 01:13:00,
2013-06-19 18:18:00,77.4,48.3,29.95,North,352,8.1,8.1,36,0.00,CLR,,0.00,WeatherDisplay:10.37,2013-06-20 01:18:00,
2013-06-19 18:23:00,77.5,47.7,29.95,WSW,239,6.0,6.0,35,0.00,CLR,,0.00,WeatherDisplay:10.37,2013-06-20 01:23:00,
2013-06-19 18:28:00,77.2,47.4,29.95,West,263,12.7,12.7,35,0.00,CLR,,0.00,WeatherDisplay:10.37,2013-06-20 01:28:00,
2013-06-19 18:33:00,77.2,48.2,29.95,SW,232,9.2,9.2,36,0.00,CLR,,0.00,WeatherDisplay:10.37,2013-06-20 01:33:00,
2013-06-19 18:38:00,77.2,48.2,29.95,WNW,291,3.5,3.5,36,0.00,CLR,,0.00,WeatherDisplay:10.37,2013-06-20 01:38:00,
2013-06-19 18:43:00,77.1,48.1,29.95,SW,216,9.2,9.2,36,0.00,CLR,,0.00,WeatherDisplay:10.37,2013-06-20 01:43:00,
2013-06-19 18:48:00,77.2,48.2,29.95,West,259,6.9,6.9,36,0.00,CLR,,0.00,WeatherDisplay:10.37,2013-06-20 01:48:00,
2013-06-19 18:53:00,77.0,48.0,29.95,West,264,8.1,8.1,36,0.00,CLR,,0.00,WeatherDisplay:10.37,2013-06-20 01:53:00,
2013-06-19 18:58:00,77.3,49.0,29.95,NW,308,11.0,11.0,37,0.00,CLR,,0.00,WeatherDisplay:10.37,2013-06-20 01:58:00,
2013-06-19 19:03:00,77.7,48.6,29.95,North,9,5.8,5.8,36,0.00,CLR,,0.00,WeatherDisplay:10.37,2013-06-20 02:03:00,
2013-06-19 19:08:00,78.0,48.9,29.95,NW,310,3.5,3.5,36,0.00,CLR,,0.00,WeatherDisplay:10.37,2013-06-20 02:08:00,
2013-06-19 19:13:00,78.0,48.9,29.95,NNW,338,6.0,6.0,36,0.00,CLR,,0.00,WeatherDisplay:10.37,2013-06-20 02:13:00,
2013-06-19 19:18:00,77.5,48.4,29.95,WSW,249,5.0,5.0,36,0.00,CLR,,0.00,WeatherDisplay:10.37,2013-06-20 02:18:00,
2013-06-19 19:23:00,76.8,48.6,29.95,WSW,239,6.9,6.9,37,0.00,CLR,,0.00,WeatherDisplay:10.37,2013-06-20 02:23:00,
2013-06-19 19:28:00,76.7,48.5,29.96,NW,325,6.9,6.9,37,0.00,CLR,,0.00,WeatherDisplay:10.37,2013-06-20 02:28:00,
2013-06-19 19:33:00,76.7,49.2,29.96,NW,314,3.5,3.5,38,0.00,CLR,,0.00,WeatherDisplay:10.37,2013-06-20 02:33:00,
2013-06-19 19:38:00,76.6,49.1,29.96,West,267,5.8,5.8,38,0.00,CLR,,0.00,WeatherDisplay:10.37,2013-06-20 02:38:00,
2013-06-19 19:43:00,76.4,48.9,29.96,WNW,294,4.6,4.6,38,0.00,CLR,,0.00,WeatherDisplay:10.37,2013-06-20 02:43:00,
2013-06-19 19:48:00,76.0,49.2,29.96,NNE,26,3.5,3.5,39,0.00,CLR,,0.00,WeatherDisplay:10.37,2013-06-20 02:48:00,
2013-06-19 19:53:00,75.7,49.7,29.96,North,357,3.5,3.5,40,0.00,CLR,,0.00,WeatherDisplay:10.37,2013-06-20 02:53:00,
2013-06-19 19:58:00,75.0,49.7,29.97,SW,219,1.1,1.1,41,0.00,CLR,,0.00,WeatherDisplay:10.37,2013-06-20 02:58:00,
2013-06-19 20:03:00,75.1,49.8,29.97,NNE,32,4.0,4.0,41,0.00,CLR,,0.00,WeatherDisplay:10.37,2013-06-20 03:03:00,
2013-06-19 20:08:00,74.2,49.6,29.97,NW,312,3.5,3.5,42,0.00,CLR,,0.00,WeatherDisplay:10.37,2013-06-20 03:08:00,
2013-06-19 20:13:00,73.4,49.5,29.97,NW,307,3.5,3.5,43,0.00,CLR,,0.00,WeatherDisplay:10.37,2013-06-20 03:13:00,
2013-06-19 20:18:00,72.7,49.5,29.97,WNW,298,3.5,3.5,44,0.00,CLR,,0.00,WeatherDisplay:10.37,2013-06-20 03:18:00,
2013-06-19 20:23:00,72.1,49.0,29.97,SW,235,3.5,3.5,44,0.00,CLR,,0.00,WeatherDisplay:10.37,2013-06-20 03:23:00,
2013-06-19 20:28:00,71.6,49.1,29.97,WSW,239,3.5,3.5,45,0.00,CLR,,0.00,WeatherDisplay:10.37,2013-06-20 03:28:00,
2013-06-19 20:33:00,71.3,49.4,29.98,North,356,3.5,3.5,46,0.00,CLR,,0.00,WeatherDisplay:10.37,2013-06-20 03:33:00,
2013-06-19 20:38:00,71.0,49.2,29.98,SW,225,6.9,6.9,46,0.00,CLR,,0.00,WeatherDisplay:10.37,2013-06-20 03:38:00,
2013-06-19 20:43:00,70.2,49.6,29.98,SSW,208,4.0,4.0,48,0.00,CLR,,0.00,WeatherDisplay:10.37,2013-06-20 03:43:00,
2013-06-19 20:48:00,69.0,49.6,29.98,SSW,205,2.3,2.5,50,0.00,CLR,,0.00,WeatherDisplay:10.37,2013-06-20 03:48:00,
2013-06-19 20:53:00,67.9,49.6,29.99,WSW,242,3.5,3.5,52,0.00,CLR,,0.00,WeatherDisplay:10.37,2013-06-20 03:53:00,
2013-06-19 20:58:00,67.1,49.9,29.99,SE,146,3.5,3.5,54,0.00,CLR,,0.00,WeatherDisplay:10.37,2013-06-20 03:58:00,
2013-06-19 21:01:00,66.8,49.6,29.99,SSW,210,2.3,2.3,54,0.00,CLR,,0.00,WeatherDisplay:10.37,2013-06-20 04:01:00,
2013-06-19 21:02:00,66.7,50.0,29.99,SSW,197,1.1,1.1,55,0.00,CLR,,0.00,WeatherDisplay:10.37,2013-06-20 04:02:00,
2013-06-19 21:03:00,66.6,49.9,29.99,SW,220,1.1,1.1,55,0.00,CLR,,0.00,WeatherDisplay:10.37,2013-06-20 04:03:00,
2013-06-19 21:04:00,66.5,49.8,29.99,South,172,2.3,2.3,55,0.00,CLR,,0.00,WeatherDisplay:10.37,2013-06-20 04:04:00,
2013-06-19 21:06:00,66.2,50.0,29.99,WSW,242,2.3,2.3,56,0.00,CLR,,0.00,WeatherDisplay:10.37,2013-06-20 04:06:00,
2013-06-19 21:11:00,65.7,50.0,29.99,SW,229,3.5,3.5,57,0.00,CLR,,0.00,WeatherDisplay:10.37,2013-06-20 04:11:00,
2013-06-19 21:16:00,65.2,50.0,29.99,SSW,207,3.5,3.5,58,0.00,CLR,,0.00,WeatherDisplay:10.37,2013-06-20 04:16:00,
2013-06-19 21:21:00,64.8,49.7,29.99,SW,214,5.8,5.8,58,0.00,CLR,,0.00,WeatherDisplay:10.37,2013-06-20 04:21:00,
2013-06-19 21:26:00,64.5,49.8,29.99,South,181,3.5,3.5,59,0.00,CLR,,0.00,WeatherDisplay:10.37,2013-06-20 04:26:00,
2013-06-19 21:31:00,64.1,49.9,30.00,SSE,154,3.5,3.5,60,0.00,CLR,,0.00,WeatherDisplay:10.37,2013-06-20 04:31:00,
2013-06-19 21:36:00,63.8,49.6,30.00,SW,225,3.5,3.5,60,0.00,CLR,,0.00,WeatherDisplay:10.37,2013-06-20 04:36:00,
2013-06-19 21:41:00,63.5,49.8,30.00,SSW,212,2.3,2.3,61,0.00,CLR,,0.00,WeatherDisplay:10.37,2013-06-20 04:41:00,
2013-06-19 21:46:00,63.2,50.0,30.00,WSW,253,2.3,2.3,62,0.00,CLR,,0.00,WeatherDisplay:10.37,2013-06-20 04:46:00,
2013-06-19 21:51:00,62.8,49.6,30.00,WSW,250,0.0,0.0,62,0.00,CLR,,0.00,WeatherDisplay:10.37,2013-06-20 04:51:00,
2013-06-19 21:56:00,62.3,49.5,30.00,SW,225,1.0,1.0,63,0.00,CLR,,0.00,WeatherDisplay:10.37,2013-06-20 04:56:00,
2013-06-19 22:01:00,62.0,49.7,30.00,SW,217,1.1,1.1,64,0.00,CLR,,0.00,WeatherDisplay:10.37,2013-06-20 05:01:00,
2013-06-19 22:06:00,61.8,49.5,30.00,SW,224,2.3,2.3,64,0.00,CLR,,0.00,WeatherDisplay:10.37,2013-06-20 05:06:00,
2013-06-19 22:11:00,61.5,49.2,30.00,South,181,2.3,2.3,64,0.00,CLR,,0.00,WeatherDisplay:10.37,2013-06-20 05:11:00,
2013-06-19 22:16:00,61.4,49.5,30.00,SW,233,0.0,0.1,65,0.00,CLR,,0.00,WeatherDisplay:10.37,2013-06-20 05:16:00,
2013-06-19 22:21:00,61.1,49.2,30.00,SW,233,0.0,0.1,65,0.00,CLR,,0.00,WeatherDisplay:10.37,2013-06-20 05:21:00,
2013-06-19 22:26:00,60.8,49.4,30.00,SW,221,1.1,1.1,66,0.00,CLR,,0.00,WeatherDisplay:10.37,2013-06-20 05:26:00,
2013-06-19 22:31:00,60.7,49.3,30.00,SSE,158,3.5,3.5,66,0.00,CLR,,0.00,WeatherDisplay:10.37,2013-06-20 05:31:00,
2013-06-19 22:36:00,60.3,48.5,30.00,SSE,165,0.0,0.0,65,0.00,CLR,,0.00,WeatherDisplay:10.37,2013-06-20 05:36:00,
2013-06-19 22:41:00,59.4,48.8,30.00,SSE,165,0.0,0.0,68,0.00,CLR,,0.00,WeatherDisplay:10.37,2013-06-20 05:41:00,
2013-06-19 22:46:00,59.2,49.0,30.00,SSE,165,1.1,1.1,69,0.00,CLR,,0.00,WeatherDisplay:10.37,2013-06-20 05:46:00,
2013-06-19 22:51:00,59.2,49.0,30.00,South,169,1.1,1.1,69,0.00,CLR,,0.00,WeatherDisplay:10.37,2013-06-20 05:51:00,
2013-06-19 22:56:00,59.3,49.1,30.00,WSW,239,1.1,1.1,69,0.00,CLR,,0.00,WeatherDisplay:10.37,2013-06-20 05:56:00,
2013-06-19 23:01:00,59.3,48.7,30.00,North,8,1.1,1.1,68,0.00,CLR,,0.00,WeatherDisplay:10.37,2013-06-20 06:01:00,
2013-06-19 23:06:00,58.2,47.7,30.00,North,8,1.1,1.1,68,0.00,CLR,,0.00,WeatherDisplay:10.37,2013-06-20 06:06:00,
2013-06-19 23:11:00,57.2,48.3,30.00,NNW,347,2.0,2.0,72,0.00,CLR,,0.00,WeatherDisplay:10.37,2013-06-20 06:11:00,
2013-06-19 23:16:00,56.9,48.0,30.00,North,353,1.1,0.0,72,0.00,CLR,,0.00,WeatherDisplay:10.37,2013-06-20 06:16:00,
2013-06-19 23:21:00,56.7,48.1,30.00,North,351,2.3,2.3,73,0.00,CLR,,0.00,WeatherDisplay:10.37,2013-06-20 06:21:00,
2013-06-19 23:26:00,56.8,48.6,30.00,NNW,339,1.1,1.1,74,0.00,CLR,,0.00,WeatherDisplay:10.37,2013-06-20 06:26:00,
2013-06-19 23:31:00,56.8,48.2,30.00,NNW,330,1.1,0.0,73,0.00,CLR,,0.00,WeatherDisplay:10.37,2013-06-20 06:31:00,
2013-06-19 23:36:00,56.8,48.2,30.00,NNW,330,0.0,0.4,73,0.00,CLR,,0.00,WeatherDisplay:10.37,2013-06-20 06:36:00,
2013-06-19 23:41:00,57.2,48.6,30.00,NW,314,1.1,1.1,73,0.00,CLR,,0.00,WeatherDisplay:10.37,2013-06-20 06:41:00,
2013-06-19 23:46:00,58.1,48.7,30.00,NW,314,3.5,3.5,71,0.00,CLR,,0.00,WeatherDisplay:10.37,2013-06-20 06:46:00,
2013-06-19 23:51:00,58.7,48.6,30.00,WNW,293,3.5,3.5,69,0.00,CLR,,0.00,WeatherDisplay:10.37,2013-06-20 06:51:00,
2013-06-19 23:56:00,59.0,48.4,30.00,NW,326,3.5,3.5,68,0.00,CLR,,0.00,WeatherDisplay:10.37,2013-06-20 06:56:00,